Location: Le Domaine
(47.0333°N, 76.5361°W)
Time: 03:50:21
(UTC-05:00)

S-56A Canister/Altair - Pass Details

Date: 27 November 2019
Orbit: 633 x 2500 km, 38.9° (Epoch: 09 December)

Event Time Altitude Azimuth Distance (km) Brightness Sun altitude
Rises 11:47:55 0° 192° (SSW) 6,165 13.5 21.8°
Reaches altitude 10° 11:53:45 10° 177° (S) 5,099 13.9 21.8°
Maximum altitude 12:02:34 19° 140° (SE) 4,102 12.1 21.8°
Drops below altitude 10° 12:10:17 10° 101° (E) 4,414 11.6 21.7°
Sets 12:14:44 0° 85° (E) 5,103 11.6 21.6°
